Snowfall_Accumulation
nan nan nan nan nan nan nan nan nan nan nan nan nan nan nan nan nan 0.0 0.0 0.0 0.0 0.2 0.0 0.0 0.0 0.1 0.0 0.0 0.5 0.0 1.6 0.4 0.8 2.1 0.8 0.8 0.4 0.3 0.1 0.0 0.0 0.0 0.8 3.4 1.5 3.2 5.2 0.0 0.0 0.0 0.0 0.0 0.0 0.0
nan nan nan nan nan nan nan nan nan nan nan nan nan nan nan nan nan nan 0.0 0.0 0.0 0.1 0.1 0.0 0.0 0.0 0.0 0.0 0.0 0.0 0.1 0.0 0.1 0.5 0.6 0.4 0.7 0.4 0.0 0.5 0.0 0.3 0.1 0.4 0.1 0.3 0.0 0.0 0.0 0.0 0.0 0.0 0.0 0.0
nan nan nan nan nan nan nan nan nan nan nan nan nan nan nan nan nan nan 0.0 0.0 0.0 0.2 0.0 0.0 0.0 0.0 0.0 0.0 0.0 0.4 0.0 0.0 0.0 0.0 0.2 0.1 0.0 0.0 0.4 0.1 0.0 0.0 0.0 0.3 0.0 0.0 0.0 0.0 0.0 0.0 0.0 0.0 0.0 0.0
nan nan nan nan nan nan nan nan nan nan nan nan nan nan nan nan nan nan 0.0 0.0 0.0 0.1 0.8 0.2 0.0 0.0 0.0 0.0 0.0 0.0 0.0 0.0 0.0 0.0 0.4 0.5 0.5 0.0 0.1 0.0 0.0 0.0 0.0 0.0 0.0 0.0 0.0 0.0 0.0 0.0 0.0 0.0 0.0 0.0
nan nan nan nan nan nan nan nan nan nan nan nan nan nan nan nan nan nan 0.0 0.0 0.0 0.1 0.5 0.2 0.0 0.0 0.0 0.0 0.0 0.0 0.0 0.0 0.0 0.4 0.6 0.6 0.0 0.2 0.0 0.0 0.0 0.0 0.0 0.0 0.0 0.0 0.0 0.0 0.0 0.0 0.0 0.0 0.0 0.0
nan nan nan nan nan nan nan nan nan nan nan nan nan nan nan nan nan 0.0 3.0 0.0 0.0 0.0 0.4 0.9 0.0 0.0 0.0 0.0 0.0 0.0 0.0 0.0 0.1 0.2 0.4 0.1 0.0 0.1 0.6 0.1 0.0 0.0 0.0 0.0 0.0 0.0 0.0 0.0 0.0 0.0 0.0 0.0 0.0 0.0
nan nan nan nan nan nan nan nan nan nan nan nan nan nan nan nan 0.0 0.2 0.1 0.0 nan 0.0 0.3 0.4 0.2 0.0 0.0 0.0 0.0 0.1 0.0 0.2 0.1 0.2 0.4 0.0 0.0 0.1 0.3 0.2 0.0 0.0 0.0 0.0 0.0 0.0 0.0 0.0 0.0 0.0 0.0 0.0 0.0 0.0
nan nan nan nan nan nan nan nan nan nan nan nan nan nan nan nan nan 0.1 0.0 nan nan 0.0 0.0 1.5 0.6 0.1 0.0 0.2 0.3 0.0 0.3 0.3 0.3 0.2 0.2 0.0 0.0 0.1 0.5 0.0 0.0 0.0 0.0 0.0 0.0 0.0 0.0 0.0 0.0 0.0 0.0 0.0 0.0 0.0
nan nan nan nan nan nan nan nan nan nan nan nan nan nan 0.0 0.0 0.1 0.0 nan nan 0.0 0.1 0.7 0.5 0.6 2.7 0.0 0.1 0.1 0.2 0.2 1.4 0.2 0.7 0.3 0.0 0.2 0.6 0.0 0.0 0.0 0.0 0.0 0.0 0.0 0.0 0.0 0.0 0.0 0.0 0.0 0.0 0.0 0.0
nan nan nan nan nan nan nan nan nan nan nan nan 0.3 0.8 3.8 0.0 nan nan 0.0 0.6 0.9 0.4 0.4 0.4 0.0 0.4 0.0 0.0 0.3 0.3 0.5 0.4 1.2 0.4 0.0 0.5 0.0 0.0 0.0 0.0 0.0 0.0 0.0 0.0 0.0 0.0 0.0 0.0 0.0 0.0 0.0 0.0 0.0 0.0
nan nan nan nan nan nan nan nan nan nan nan 0.8 4.9 1.0 0.0 nan 0.0 0.1 5.5 4.1 2.7 2.0 0.0 0.0 0.0 0.0 0.0 0.6 0.8 0.1 0.5 0.3 1.8 0.1 0.4 0.4 0.3 0.0 0.0 0.0 0.0 0.0 0.0 0.0 0.0 0.0 0.0 0.0 0.0 0.0 0.0 0.0 0.0 0.0
nan nan nan nan nan nan nan nan nan 0.0 0.2 0.0 0.0 0.0 0.0 0.1 3.5 6.3 6.2 2.9 1.9 0.5 0.0 0.0 0.0 0.0 0.1 0.0 0.2 0.5 0.6 0.6 0.2 0.0 2.0 0.5 0.5 0.0 0.0 0.0 0.0 0.0 0.0 0.0 0.0 0.0 0.0 0.0 0.0 0.0 0.0 0.0 0.0 0.0
nan nan nan nan nan nan nan nan nan nan nan 0.0 0.3 0.7 1.9 4.9 35.3 4.7 5.7 2.2 2.1 0.0 0.1 0.0 0.5 0.1 0.1 0.0 0.4 0.5 2.2 3.0 0.0 6.6 0.3 0.5 0.1 0.0 0.0 0.0 0.0 0.0 0.0 0.0 0.0 0.0 0.0 0.0 0.0 0.0 0.0 0.0 0.0 0.0
nan nan nan nan nan nan nan nan nan 0.0 0.1 3.4 4.1 33.8 4.9 2.6 2.0 0.2 0.0 0.2 0.1 0.0 0.0 0.0 0.4 0.5 0.4 1.0 0.6 1.3 0.4 0.3 3.3 2.3 0.9 0.8 0.0 0.0 0.0 0.0 0.0 0.0 0.0 0.0 0.0 0.0 0.0 0.0 0.0 0.0 0.1 0.2 0.0 0.0
nan nan nan nan nan nan nan nan nan 0.0 1.1 3.9 1.8 13.7 1.1 0.2 0.2 0.1 0.0 0.0 0.0 0.0 0.0 0.2 0.2 0.4 1.1 4.0 1.3 0.7 2.3 1.3 0.6 1.8 0.9 0.4 0.0 0.0 0.0 0.0 0.0 0.0 0.6 0.1 0.0 0.1 1.9 1.1 0.2 0.8 0.4 0.0 0.0 2.4
nan nan 0.0 nan nan nan nan nan 0.0 0.0 1.7 2.0 0.9 1.3 0.5 0.7 1.3 0.5 0.1 0.2 0.0 0.0 0.0 0.2 0.2 0.5 1.8 0.9 1.8 0.5 0.3 1.4 2.0 1.3 0.7 0.5 0.0 0.0 0.0 0.0 0.0 0.0 0.0 0.0 0.0 0.0 0.9 4.6 4.1 1.5 2.8 2.8 5.0 3.5
nan 0.0 nan nan nan nan nan 0.8 0.9 4.1 2.7 1.0 4.5 0.2 0.4 0.5 0.6 0.2 0.1 0.0 0.0 0.1 1.1 0.9 1.5 0.0 0.2 0.7 0.1 0.5 2.4 2.0 0.7 0.6 0.2 0.0 0.0 0.0 0.0 0.0 0.0 0.0 0.0 0.0 0.0 0.0 0.4 0.8 2.2 1.4 2.8 0.4 0.3 0.4
0.0 0.0 nan nan nan nan 0.1 0.4 2.6 3.0 1.9 1.1 6.0 1.1 0.2 0.3 0.5 0.2 0.1 0.0 0.1 0.4 0.4 0.1 0.3 0.2 1.5 0.3 1.7 1.4 1.0 0.6 0.2 0.2 0.1 0.0 0.0 0.0 0.0 0.0 0.0 0.0 0.0 0.1 0.2 0.5 0.7 0.5 0.1 0.5 0.1 0.0 0.7 0.7
0.0 0.0 nan nan 0.0 0.7 5.0 3.6 0.6 4.6 3.9 0.8 0.2 0.2 0.1 0.2 0.2 0.1 0.1 0.0 0.1 0.0 0.9 0.8 0.1 0.7 0.7 0.4 0.6 0.4 0.3 0.2 0.4 0.3 0.2 0.0 0.0 0.0 0.0 0.0 0.0 0.0 0.0 0.0 0.0 0.3 0.3 0.0 0.2 0.3 0.4 0.4 0.6 0.8
nan nan nan nan nan 1.6 2.9 3.2 0.1 2.2 3.6 2.1 0.2 0.3 0.1 0.3 0.2 0.3 0.3 0.3 0.1 0.4 1.3 2.2 0.7 0.8 0.6 0.3 0.3 0.2 0.2 0.2 0.1 0.4 0.4 0.3 0.3 0.0 0.0 0.1 0.3 0.1 0.2 0.0 0.3 0.1 0.4 0.4 0.4 0.2 0.2 0.4 1.1 2.1
nan nan nan 0.0 0.3 0.3 0.4 1.4 1.4 1.2 1.9 2.1 0.3 0.4 1.1 0.1 0.3 0.5 0.3 0.0 1.4 0.9 1.1 0.4 1.2 0.5 0.1 0.4 0.2 0.1 0.1 0.0 0.1 0.2 0.2 0.7 0.3 0.2 0.2 0.2 0.1 0.1 0.1 0.3 0.5 0.8 0.4 0.5 0.4 0.3 2.0 3.5 1.7 1.6
0.0 nan 0.1 0.0 1.3 0.7 3.0 0.2 0.9 1.0 2.5 1.6 0.6 0.8 1.5 3.8 3.2 1.2 0.1 1.5 1.4 1.3 0.5 0.7 0.6 0.3 0.3 0.1 0.3 0.0 0.0 0.0 0.0 0.1 0.0 0.1 0.4 0.2 0.3 0.2 0.2 0.3 0.3 0.4 0.3 0.8 0.6 0.3 0.4 0.6 2.2 4.8 1.2 1.5
nan 0.2 0.6 0.4 4.3 7.1 15.3 0.5 2.1 1.2 4.3 2.9 0.9 1.9 2.4 1.8 0.9 0.1 4.2 0.7 1.6 0.9 0.5 0.3 0.1 0.1 0.2 0.0 0.0 0.0 0.0 0.0 0.3 0.4 0.3 0.3 0.2 0.2 0.2 0.3 0.2 0.7 0.7 0.5 0.2 0.4 0.7 0.7 1.0 4.7 2.6 2.9 3.2 9.9
nan 2.7 8.6 6.1 4.2 15.6 1.0 6.5 2.5 2.8 1.7 2.9 2.7 5.1 1.4 1.0 0.4 2.9 4.9 3.0 1.8 0.3 0.3 0.0 0.2 0.5 0.5 0.2 0.6 0.6 0.5 0.3 0.3 0.4 0.3 0.4 0.4 0.5 0.3 0.3 0.2 0.2 0.3 0.3 0.4 0.8 1.0 4.1 3.8 1.2 6.4 13.2 16.0 16.3
19.2 27.2 7.3 30.4 2.5 10.1 6.6 3.7 2.6 2.7 7.7 5.9 4.6 5.8 13.2 1.6 9.9 6.6 2.0 4.4 1.4 1.1 0.8 0.5 0.4 0.4 0.6 1.0 1.2 0.7 0.1 0.5 0.7 1.0 0.7 0.5 0.5 0.6 0.7 0.4 0.6 0.4 0.4 2.0 4.4 5.6 6.5 6.8 7.4 7.1 4.0 17.2 7.2 7.7
39.8 12.7 21.3 4.0 10.9 6.2 3.9 8.3 9.3 8.6 6.3 8.1 5.4 2.5 1.3 4.9 6.3 9.6 4.0 4.2 3.5 1.6 7.1 4.5 2.5 0.8 0.8 1.0 1.9 1.0 0.7 0.5 0.5 0.9 1.2 0.7 1.1 2.2 3.7 4.7 3.2 2.4 0.6 1.3 4.1 9.1 6.5 8.0 9.9 4.9 10.6 4.8 6.5 14.2
32.0 15.9 0.8 0.1 0.2 0.2 6.7 4.5 0.7 3.7 8.0 10.9 5.8 6.3 7.6 16.9 12.4 4.0 1.0 0.8 0.8 0.8 0.5 0.5 0.6 0.7 0.9 1.0 1.1 0.7 0.5 0.5 0.4 1.2 0.9 1.0 1.0 1.0 2.0 8.0 5.5 2.3 1.0 2.2 3.7 10.2 11.8 11.7 12.9 8.8 12.0 11.3 13.1 15.1
4.2 1.5 11.1 3.1 6.2 0.4 6.5 4.2 5.5 7.2 3.3 1.3 5.9 10.1 11.0 10.1 8.1 2.6 1.1 0.7 0.9 0.4 0.3 0.3 0.3 0.4 0.5 0.8 1.1 1.5 1.4 1.8 2.3 1.8 1.0 0.9 0.9 2.2 3.1 2.7 3.5 6.7 3.9 10.3 9.3 12.6 8.9 13.6 16.1 15.6 14.4 15.8 19.8 14.6
6.5 1.7 1.8 14.5 6.7 5.4 9.8 8.5 6.2 2.0 0.5 1.9 13.0 9.7 6.0 2.2 3.6 1.7 1.0 0.7 0.6 0.7 1.1 1.9 2.3 2.3 1.3 1.3 2.6 1.9 2.5 3.5 3.5 8.4 8.5 10.3 9.9 8.0 4.0 4.9 5.7 7.3 6.5 8.2 7.7 8.9 9.6 12.5 13.9 15.0 11.2 18.0 16.7 18.7
5.9 0.9 6.1 8.7 11.9 8.1 13.4 7.8 9.5 5.8 0.6 1.7 1.6 2.5 2.4 4.7 3.3 0.8 1.1 1.0 1.9 7.8 11.6 8.4 8.4 7.5 16.4 11.8 11.0 6.6 5.1 7.1 7.3 12.7 16.6 13.0 9.8 10.8 12.4 13.9 12.7 11.4 10.5 19.5 14.9 8.0 9.5 15.3 13.4 21.9 19.1 18.4 18.2 21.0
0.9 3.8 7.4 3.9 11.5 16.9 13.9 12.0 12.2 5.9 5.7 11.2 10.1 14.3 10.9 7.3 5.1 1.7 1.3 2.0 2.4 15.7 17.1 21.1 20.8 19.2 17.6 12.5 19.1 19.2 15.8 17.6 7.7 5.2 4.7 8.9 12.3 15.6 16.5 14.5 13.5 14.9 15.7 15.5 20.0 17.6 20.8 23.6 21.7 19.8 15.8 13.6 15.7 16.5
6.7 12.0 17.9 12.1 14.9 20.4 8.1 20.3 16.5 15.5 18.7 18.5 23.3 15.7 18.1 16.5 15.5 7.4 4.6 7.4 12.1 15.7 6.9 12.2 21.7 9.2 8.7 7.5 14.4 10.8 8.7 8.6 9.8 10.1 8.7 13.1 15.2 18.7 11.5 10.2 21.9 19.1 16.2 18.0 16.3 19.0 15.8 23.1 24.9 25.5 21.1 18.3 17.2 15.8
23.9 15.6 11.6 12.2 25.0 12.3 12.8 15.9 4.7 19.0 16.4 21.1 21.7 17.7 16.0 15.4 14.7 10.2 2.7 6.6 9.6 11.7 10.5 14.4 14.4 18.3 10.9 10.2 9.8 10.5 9.1 9.5 10.2 10.1 9.0 9.0 9.1 10.1 15.1 20.8 23.8 20.8 12.5 17.5 18.1 17.7 15.9 14.0 17.8 19.8 21.9 25.4 22.8 19.3
Water_Equivalent
nan nan nan nan nan nan nan nan nan nan nan nan nan nan nan nan nan 0.00 0.00 0.00 0.00 0.08 0.02 0.00 0.00 0.03 0.00 0.00 0.17 0.00 0.47 0.17 0.31 0.62 0.26 0.27 0.12 0.08 0.03 0.00 0.00 0.02 0.25 0.89 0.41 0.80 1.08 0.00 0.00 0.00 0.01 0.00 0.00 0.00
nan nan nan nan nan nan nan nan nan nan nan nan nan nan nan nan nan nan 0.00 0.00 0.00 0.03 0.03 0.00 0.00 0.00 0.00 0.00 0.00 0.00 0.03 0.00 0.05 0.18 0.18 0.13 0.22 0.13 0.00 0.14 0.00 0.10 0.02 0.12 0.03 0.10 0.00 0.00 0.00 0.00 0.00 0.00 0.00 0.00
nan nan nan nan nan nan nan nan nan nan nan nan nan nan nan nan nan nan 0.00 0.00 0.00 0.09 0.01 0.01 0.01 0.00 0.00 0.00 0.00 0.18 0.02 0.00 0.00 0.00 0.06 0.05 0.01 0.01 0.13 0.03 0.00 0.00 0.00 0.11 0.01 0.00 0.00 0.00 0.00 0.00 0.00 0.00 0.00 0.00
nan nan nan nan nan nan nan nan nan nan nan nan nan nan nan nan nan nan 0.00 0.00 0.00 0.03 0.31 0.07 0.00 0.00 0.00 0.00 0.00 0.00 0.00 0.00 0.00 0.00 0.15 0.16 0.16 0.00 0.03 0.00 0.01 0.00 0.00 0.00 0.00 0.00 0.00 0.00 0.00 0.00 0.00 0.00 0.00 0.00
nan nan nan nan nan nan nan nan nan nan nan nan nan nan nan nan nan nan 0.00 0.00 0.00 0.03 0.18 0.10 0.00 0.00 0.00 0.00 0.00 0.00 0.00 0.00 0.01 0.14 0.22 0.20 0.00 0.06 0.00 0.01 0.00 0.00 0.00 0.00 0.00 0.00 0.00 0.00 0.00 0.00 0.00 0.00 0.00 0.00
nan nan nan nan nan nan nan nan nan nan nan nan nan nan nan nan nan 0.00 1.16 0.00 0.00 0.00 0.17 0.32 0.00 0.00 0.00 0.00 0.00 0.00 0.00 0.00 0.02 0.10 0.12 0.03 0.00 0.03 0.17 0.05 0.00 0.00 0.00 0.00 0.00 0.00 0.00 0.00 0.00 0.00 0.00 0.00 0.00 0.00
nan nan nan nan nan nan nan nan nan nan nan nan nan nan nan nan 0.00 0.07 0.02 0.00 nan 0.00 0.12 0.13 0.07 0.00 0.00 0.00 0.00 0.04 0.00 0.07 0.04 0.09 0.13 0.00 0.00 0.04 0.11 0.05 0.00 0.00 0.00 0.00 0.00 0.00 0.00 0.00 0.00 0.00 0.00 0.00 0.00 0.00
nan nan nan nan nan nan nan nan nan nan nan nan nan nan nan nan nan 0.03 0.00 nan nan 0.00 0.01 0.49 0.22 0.05 0.00 0.08 0.12 0.00 0.11 0.10 0.12 0.07 0.06 0.02 0.01 0.05 0.15 0.00 0.00 0.00 0.00 0.00 0.00 0.00 0.00 0.00 0.00 0.00 0.00 0.00 0.00 0.00
nan nan nan nan nan nan nan nan nan nan nan nan nan nan 0.00 0.00 0.06 0.00 nan nan 0.00 0.03 0.24 0.19 0.18 0.93 0.00 0.04 0.03 0.06 0.08 0.45 0.09 0.24 0.10 0.02 0.06 0.15 0.00 0.00 0.00 0.00 0.00 0.00 0.00 0.00 0.00 0.00 0.00 0.00 0.00 0.00 0.00 0.00
nan nan nan nan nan nan nan nan nan nan nan nan 0.08 0.18 1.33 0.00 nan nan 0.01 0.23 0.32 0.15 0.15 0.12 0.00 0.14 0.02 0.00 0.13 0.13 0.17 0.13 0.37 0.12 0.01 0.15 0.00 0.00 0.00 0.00 0.00 0.00 0.00 0.00 0.00 0.00 0.00 0.00 0.00 0.00 0.00 0.00 0.00 0.00
nan nan nan nan nan nan nan nan nan nan nan 0.21 1.38 0.30 0.00 nan 0.00 0.03 1.60 1.09 0.76 0.46 0.00 0.01 0.00 0.00 0.00 0.19 0.23 0.03 0.17 0.11 0.45 0.03 0.13 0.13 0.08 0.02 0.00 0.00 0.00 0.00 0.00 0.00 0.00 0.00 0.00 0.00 0.00 0.00 0.00 0.00 0.00 0.00
nan nan nan nan nan nan nan nan nan 0.01 0.06 0.01 0.01 0.00 0.00 0.03 0.89 1.13 1.24 0.59 0.34 0.10 0.01 0.01 0.01 0.00 0.02 0.00 0.08 0.16 0.17 0.16 0.04 0.01 0.57 0.16 0.13 0.00 0.00 0.00 0.00 0.00 0.00 0.00 0.00 0.00 0.00 0.00 0.00 0.00 0.00 0.00 0.00 0.00
nan nan nan nan nan nan nan nan nan nan nan 0.00 0.10 0.20 0.52 1.27 6.59 0.72 0.96 0.41 0.58 0.01 0.03 0.00 0.21 0.02 0.03 0.01 0.16 0.17 0.58 0.79 0.00 2.07 0.09 0.13 0.02 0.00 0.00 0.00 0.00 0.00 0.00 0.00 0.00 0.00 0.00 0.00 0.00 0.00 0.00 0.00 0.00 0.00
nan nan nan nan nan nan nan nan nan 0.00 0.02 0.87 0.85 5.76 1.24 0.43 0.34 0.04 0.02 0.04 0.02 0.00 0.00 0.01 0.14 0.18 0.12 0.30 0.23 0.29 0.11 0.10 1.01 0.50 0.23 0.18 0.01 0.00 0.00 0.00 0.00 0.00 0.00 0.00 0.00 0.00 0.00 0.00 0.00 0.00 0.05 0.09 0.01 0.00
nan nan nan nan nan nan nan nan nan 0.00 0.30 0.77 0.37 2.81 0.38 0.05 0.05 0.05 0.00 0.00 0.00 0.00 0.00 0.10 0.08 0.14 0.30 0.94 0.35 0.14 0.72 0.46 0.21 0.43 0.22 0.13 0.00 0.00 0.00 0.00 0.00 0.01 0.19 0.04 0.00 0.04 0.61 0.33 0.05 0.21 0.13 0.00 0.00 0.67
nan nan 0.00 nan nan nan nan nan 0.00 0.02 0.42 0.41 0.20 0.25 0.11 0.24 0.54 0.20 0.06 0.06 0.00 0.00 0.01 0.07 0.06 0.12 0.40 0.22 0.32 0.13 0.07 0.41 0.46 0.32 0.19 0.13 0.01 0.01 0.00 0.00 0.00 0.00 0.00 0.00 0.00 0.00 0.27 1.23 1.15 0.44 0.81 0.79 1.43 1.04
nan 0.00 nan nan nan nan nan 0.16 0.17 0.80 0.53 0.21 1.49 0.07 0.13 0.12 0.19 0.08 0.02 0.01 0.00 0.04 0.43 0.26 0.37 0.01 0.06 0.19 0.03 0.14 0.65 0.48 0.20 0.17 0.07 0.00 0.00 0.00 0.00 0.00 0.00 0.00 0.00 0.00 0.00 0.01 0.12 0.24 0.62 0.37 0.69 0.11 0.09 0.11
0.00 0.00 nan nan nan nan 0.04 0.09 0.54 0.59 0.31 0.30 1.71 0.39 0.08 0.08 0.16 0.09 0.02 0.00 0.02 0.13 0.13 0.03 0.11 0.05 0.42 0.06 0.46 0.36 0.29 0.18 0.08 0.06 0.04 0.01 0.00 0.00 0.00 0.00 0.00 0.00 0.00 0.03 0.06 0.15 0.19 0.14 0.03 0.17 0.02 0.01 0.20 0.19
0.00 0.00 nan nan 0.00 0.18 0.99 0.64 0.14 0.87 0.79 0.27 0.09 0.05 0.04 0.10 0.06 0.02 0.03 0.02 0.02 0.01 0.25 0.20 0.04 0.18 0.20 0.14 0.18 0.14 0.10 0.07 0.12 0.12 0.08 0.00 0.00 0.00 0.00 0.00 0.00 0.00 0.01 0.00 0.00 0.11 0.09 0.00 0.07 0.11 0.12 0.13 0.17 0.23
nan nan nan nan nan 0.51 0.57 0.63 0.03 0.42 0.71 0.50 0.06 0.08 0.05 0.11 0.07 0.14 0.11 0.08 0.05 0.12 0.32 0.49 0.20 0.24 0.19 0.11 0.11 0.09 0.07 0.06 0.04 0.12 0.14 0.12 0.11 0.00 0.00 0.03 0.10 0.02 0.06 0.01 0.09 0.04 0.14 0.13 0.12 0.08 0.08 0.13 0.32 0.55
nan nan nan 0.00 0.11 0.11 0.12 0.30 0.27 0.25 0.44 0.54 0.10 0.08 0.29 0.04 0.10 0.20 0.13 0.01 0.44 0.26 0.29 0.14 0.40 0.16 0.04 0.15 0.08 0.05 0.04 0.01 0.05 0.05 0.07 0.20 0.12 0.06 0.07 0.07 0.05 0.06 0.05 0.10 0.18 0.24 0.13 0.17 0.15 0.11 0.76 1.31 0.62 0.52
0.00 nan 0.04 0.02 0.38 0.21 0.77 0.03 0.16 0.20 0.57 0.44 0.14 0.16 0.37 1.30 1.10 0.39 0.05 0.42 0.34 0.32 0.16 0.21 0.19 0.13 0.10 0.04 0.09 0.00 0.00 0.00 0.00 0.04 0.02 0.03 0.12 0.09 0.09 0.08 0.06 0.13 0.11 0.15 0.11 0.28 0.19 0.11 0.14 0.19 0.74 1.62 0.38 0.47
nan 0.07 0.17 0.11 0.94 1.29 2.33 0.10 0.34 0.23 0.80 0.63 0.18 0.35 0.54 0.43 0.22 0.03 0.96 0.17 0.38 0.28 0.16 0.11 0.02 0.01 0.07 0.00 0.00 0.00 0.00 0.00 0.10 0.12 0.11 0.09 0.07 0.08 0.07 0.10 0.07 0.25 0.23 0.15 0.08 0.13 0.23 0.23 0.31 1.53 0.85 0.96 1.04 2.91
nan 0.56 1.91 1.31 0.73 3.06 0.23 1.54 0.45 0.49 0.32 0.62 0.51 0.86 0.23 0.24 0.10 0.64 0.94 0.64 0.42 0.10 0.10 0.00 0.08 0.16 0.15 0.04 0.16 0.16 0.16 0.09 0.09 0.11 0.10 0.11 0.11 0.15 0.09 0.10 0.08 0.08 0.09 0.08 0.11 0.24 0.29 1.37 1.25 0.41 1.99 4.14 5.00 4.24
3.57 4.72 1.96 4.33 0.67 2.42 1.68 0.95 0.42 0.46 1.43 1.34 0.89 1.13 2.61 0.35 1.75 1.25 0.36 0.74 0.34 0.29 0.23 0.15 0.13 0.11 0.15 0.24 0.24 0.18 0.03 0.13 0.19 0.24 0.19 0.13 0.14 0.18 0.20 0.13 0.16 0.13 0.12 0.67 1.42 1.90 2.08 2.10 2.33 2.22 1.25 4.82 1.61 1.86
5.58 3.75 3.49 1.16 2.66 1.45 0.87 1.65 1.80 1.90 1.17 1.54 1.18 0.56 0.34 1.12 1.23 1.56 0.68 0.87 0.87 0.38 2.05 1.29 0.65 0.22 0.20 0.22 0.34 0.21 0.18 0.14 0.16 0.21 0.29 0.18 0.28 0.56 0.93 0.99 0.72 0.56 0.17 0.45 1.27 2.94 2.02 2.48 2.96 1.36 2.89 1.33 2.01 3.93
4.49 3.63 0.20 0.03 0.06 0.05 1.59 1.35 0.20 0.89 1.46 1.91 1.11 1.38 1.65 2.83 2.18 0.69 0.24 0.20 0.19 0.23 0.15 0.14 0.16 0.19 0.22 0.23 0.24 0.19 0.14 0.16 0.10 0.29 0.23 0.24 0.23 0.24 0.50 1.83 1.11 0.53 0.26 0.64 1.23 3.50 3.69 3.57 3.83 2.36 3.10 3.21 3.58 3.99
0.85 0.35 1.66 0.97 1.68 0.14 1.41 0.91 1.18 1.46 0.76 0.28 1.09 1.78 2.11 1.88 1.11 0.54 0.26 0.21 0.24 0.12 0.11 0.10 0.10 0.10 0.13 0.19 0.27 0.35 0.36 0.43 0.57 0.42 0.27 0.22 0.23 0.53 0.68 0.61 0.73 2.22 1.00 2.63 2.89 3.58 2.58 4.12 4.53 4.46 3.85 3.95 4.44 3.74
1.27 0.47 0.51 1.89 1.10 1.07 1.63 1.71 1.27 0.43 0.14 0.52 2.74 1.51 1.05 0.40 0.81 0.39 0.25 0.19 0.18 0.20 0.30 0.50 0.58 0.68 0.35 0.32 0.61 0.43 0.62 0.86 0.83 1.51 1.81 1.87 1.94 1.69 0.87 1.12 1.30 1.76 1.61 1.94 2.53 2.55 2.43 3.00 3.49 3.87 3.57 4.55 4.23 4.63
1.07 0.27 1.34 1.42 1.45 1.15 2.41 1.47 1.91 1.28 0.13 0.38 0.31 0.40 0.38 0.80 0.74 0.24 0.29 0.26 0.50 2.09 3.45 2.41 2.33 2.11 4.07 2.73 2.33 1.55 1.42 2.08 1.93 2.90 3.43 2.48 1.95 2.02 2.41 3.00 2.86 2.69 2.60 5.28 3.20 1.54 2.80 3.45 3.76 4.93 4.15 3.61 3.85 4.18
0.27 1.19 1.81 0.93 1.87 3.37 2.86 3.05 3.06 1.37 1.44 2.78 2.68 3.14 1.98 1.23 1.06 0.38 0.31 0.51 0.62 4.61 5.02 5.66 5.53 5.50 4.38 2.68 4.57 4.22 2.87 4.31 1.65 1.07 1.01 1.87 2.40 3.36 3.60 3.15 3.14 3.58 3.81 3.62 4.67 3.48 3.43 4.16 4.30 4.21 2.98 2.58 2.66 2.69
1.75 3.30 2.85 1.65 2.55 4.58 1.99 5.32 4.10 3.61 4.65 4.19 5.01 3.86 4.41 3.66 2.28 1.39 1.04 1.95 3.07 3.95 2.22 3.03 5.33 1.99 2.02 1.81 3.61 2.62 2.84 1.55 1.68 1.71 1.77 2.42 3.06 3.66 2.24 1.87 4.50 4.42 3.54 3.92 3.28 3.53 2.94 3.86 3.89 4.09 3.43 3.03 2.77 2.43
5.39 3.65 2.40 2.25 4.87 2.65 2.84 3.84 1.01 3.82 3.17 3.90 4.38 3.67 3.55 2.90 1.99 2.02 0.56 1.75 2.61 3.00 2.47 3.73 3.95 5.00 2.55 2.33 1.97 2.08 2.57 1.80 2.47 3.34 2.96 2.97 2.99 2.94 2.61 3.93 4.76 3.68 2.21 3.09 3.41 3.09 2.74 2.12 2.36 2.78 2.91 3.33 3.09 2.75
SL_Ratio
nan nan nan nan nan nan nan nan nan nan nan nan nan nan nan nan nan nan nan nan nan 2.5 2.6 nan nan 2.9 2.9 2.5 2.6 nan 3.4 2.6 2.5 3.4 3.3 3.1 3.0 3.2 2.7 nan nan 2.7 3.4 3.9 3.7 4.0 4.8 nan nan nan 3.2 nan nan nan
nan nan nan nan nan nan nan nan nan nan nan nan nan nan nan nan nan nan nan nan nan 2.5 2.6 nan nan nan nan nan 1.7 nan 2.9 nan 2.5 3.0 3.2 2.9 3.2 2.9 3.1 3.5 nan 3.2 3.3 3.3 3.5 3.1 nan nan nan nan nan nan nan nan
nan nan nan nan nan nan nan nan nan nan nan nan nan nan nan nan nan nan nan nan 0.0 2.5 2.5 2.7 2.7 nan nan nan nan 2.5 2.5 nan 0.0 nan 2.5 2.5 2.9 2.7 3.1 2.8 2.7 nan nan 3.2 3.3 nan nan nan nan nan nan nan nan nan
nan nan nan nan nan nan nan nan nan nan nan nan nan nan nan nan nan nan nan nan nan 2.4 2.7 2.5 nan nan nan nan nan nan nan nan nan nan 2.7 3.0 3.3 2.5 2.7 nan 2.6 2.5 nan nan nan nan nan nan nan nan nan nan nan nan
nan nan nan nan nan nan nan nan nan nan nan nan nan nan nan nan nan nan nan nan nan 2.5 2.9 2.5 nan nan nan nan nan nan nan nan 2.6 2.6 2.8 3.2 0.0 3.0 nan 2.4 nan nan nan nan 2.0 nan nan nan nan nan nan nan nan nan
nan nan nan nan nan nan nan nan nan nan nan nan nan nan nan nan nan nan 2.6 nan nan nan 2.5 2.9 0.0 nan nan nan nan nan nan nan 2.5 2.5 3.0 2.5 nan 3.2 3.4 3.1 nan nan nan nan nan nan nan nan nan nan nan nan nan nan
nan nan nan nan nan nan nan nan nan nan nan nan nan nan nan nan nan 2.9 2.5 nan nan nan 2.5 2.9 2.5 nan nan nan nan 2.5 3.3 2.5 2.5 2.6 3.0 3.3 nan 3.0 3.2 3.2 nan nan nan nan nan nan nan nan nan nan nan nan nan nan
nan nan nan nan nan nan nan nan nan nan nan nan nan nan nan nan nan 2.9 nan nan nan nan 2.5 3.1 2.8 2.5 nan 2.5 2.6 nan 2.5 2.5 2.5 2.6 2.8 2.6 2.9 2.8 3.7 nan nan nan nan nan nan nan nan nan nan nan nan nan nan nan
nan nan nan nan nan nan nan nan nan nan nan nan nan nan nan nan 2.6 nan nan nan nan 2.5 2.8 2.8 3.3 2.9 nan 2.5 2.5 2.5 2.5 3.1 2.6 3.1 2.9 2.5 3.1 3.7 nan nan nan nan nan nan nan nan nan nan nan nan nan nan nan nan
nan nan nan nan nan nan nan nan nan nan nan nan 3.3 4.5 2.9 nan nan nan 2.5 2.5 2.7 2.7 2.7 2.8 nan 2.6 2.5 0.0 2.5 2.6 2.7 2.8 3.3 3.0 2.9 3.3 2.9 nan nan nan nan nan nan nan nan nan nan nan nan nan nan nan nan nan
nan nan nan nan nan nan nan nan nan nan nan 3.9 3.6 3.4 nan nan nan 2.5 3.4 3.8 3.5 4.4 2.9 2.4 nan nan nan 3.3 3.7 2.7 2.9 3.0 3.9 3.0 3.2 3.4 3.4 2.6 nan nan nan nan nan nan nan nan nan nan nan nan nan nan nan nan
nan nan nan nan nan nan nan nan nan 2.8 3.8 4.2 3.5 nan nan 2.5 4.0 5.6 5.0 4.9 5.5 5.6 2.5 2.5 2.7 nan 2.4 nan 2.7 3.2 3.7 3.7 5.5 3.0 3.5 3.3 3.7 nan nan nan nan nan nan nan nan nan nan nan nan nan nan nan nan nan
nan nan nan nan nan nan nan nan nan nan nan nan 3.2 3.4 3.6 3.9 5.4 6.5 5.9 5.4 3.6 4.4 2.6 nan 2.5 2.6 2.5 2.5 2.7 3.1 3.8 3.7 5.0 3.2 2.9 4.0 3.2 nan nan nan nan nan nan nan nan nan nan nan nan nan nan nan nan nan
nan nan nan nan nan nan nan nan nan nan 3.2 3.9 4.9 5.9 3.9 6.2 5.9 4.0 2.9 3.9 3.1 5.0 nan 2.6 2.8 2.9 3.0 3.2 2.7 4.6 4.0 3.3 3.3 4.6 3.8 4.4 3.3 nan nan nan nan nan nan nan nan nan nan nan nan nan 2.6 2.7 2.7 0.0
nan nan nan nan nan nan nan nan nan nan 3.7 5.1 4.7 4.9 3.0 3.5 3.4 2.5 0.0 2.3 nan nan 0.0 2.5 2.8 3.1 3.6 4.2 3.8 4.6 3.3 2.9 2.8 4.0 4.0 3.5 nan nan nan nan nan 3.3 3.2 3.1 nan 2.9 3.0 3.4 3.4 3.6 3.2 5.0 0.0 3.6
nan nan nan nan nan nan nan nan nan 2.4 4.1 4.9 4.5 5.1 4.3 2.9 2.5 2.5 2.5 2.5 nan nan 2.4 2.5 2.7 3.8 4.5 4.2 5.5 4.2 3.9 3.5 4.4 4.0 3.7 3.5 3.7 3.7 0.0 nan nan nan nan nan nan 3.0 3.3 3.7 3.5 3.4 3.4 3.5 3.5 3.4
nan 2.3 nan nan nan nan nan 5.1 5.0 5.2 5.1 4.7 3.0 2.8 3.3 4.2 2.9 2.5 3.2 2.6 nan 2.5 2.7 3.3 4.0 4.8 3.0 3.6 4.7 3.4 3.7 4.1 3.6 3.6 3.2 2.5 nan nan nan nan nan nan nan nan 0.0 3.3 3.3 3.4 3.6 3.9 4.0 3.5 3.4 3.4
5.0 nan nan nan nan nan 3.1 4.5 4.7 5.0 6.3 3.6 3.5 2.8 2.7 3.1 3.4 2.5 2.6 nan 2.9 3.4 3.3 3.1 3.2 3.9 3.7 4.0 3.8 3.8 3.5 3.2 3.0 2.8 2.7 2.5 nan nan nan nan nan nan nan 3.3 3.4 3.4 3.4 3.6 3.5 3.2 3.4 3.3 3.6 3.7
nan nan nan nan nan 3.8 5.0 5.6 4.4 5.4 4.9 3.0 2.7 3.1 2.5 2.5 2.5 2.5 2.6 2.5 2.5 2.6 3.6 3.8 3.9 3.9 3.3 3.3 3.1 2.9 2.7 2.8 3.1 2.8 2.6 nan nan nan nan nan nan nan 3.0 3.0 nan 2.9 2.9 0.0 3.1 3.0 3.1 3.1 3.3 3.3
nan nan nan nan nan 3.1 5.2 5.1 3.3 5.1 5.1 4.1 2.8 3.3 2.7 3.2 2.7 2.5 3.0 3.3 2.8 3.0 4.1 4.5 3.7 3.4 3.3 3.0 2.7 2.6 2.7 2.6 2.8 3.1 2.9 2.7 2.6 3.3 nan 2.8 2.8 2.9 2.9 2.8 2.9 3.0 3.1 3.1 3.0 2.8 2.9 3.1 3.5 3.8
nan nan nan nan 2.8 2.8 3.3 4.7 5.1 5.0 4.4 3.9 3.3 5.1 3.7 2.6 2.5 2.5 2.5 2.8 3.2 3.5 3.9 3.1 3.1 2.8 2.8 2.7 2.5 2.5 2.6 2.6 2.7 3.1 3.0 3.6 2.7 2.5 2.6 2.6 2.5 2.6 2.5 3.0 2.9 3.1 3.1 3.1 3.0 2.9 2.6 2.7 2.8 3.1
nan nan 3.8 2.7 3.4 3.3 4.0 4.7 5.3 4.8 4.5 3.6 4.6 5.3 4.1 2.9 2.9 3.1 2.8 3.5 4.2 4.1 3.1 3.2 3.1 2.8 2.8 2.9 2.9 2.7 nan nan nan 2.6 2.7 2.7 3.2 2.9 2.9 2.7 2.7 2.7 2.7 2.7 2.8 3.0 3.1 3.0 2.9 2.9 3.0 3.0 3.3 3.2
nan 2.9 3.5 4.0 4.6 5.5 6.6 5.1 6.2 5.2 5.3 4.5 4.9 5.4 4.4 4.2 4.1 4.5 4.4 3.8 4.1 3.3 2.9 2.8 3.0 3.6 3.2 3.6 nan nan 2.5 nan 3.2 3.3 3.1 3.0 2.8 2.6 2.7 2.9 2.5 2.7 2.9 3.1 2.9 3.0 3.2 3.0 3.2 3.1 3.0 3.0 3.1 3.4
nan 4.8 4.5 4.6 5.8 5.1 4.6 4.2 5.6 5.7 5.4 4.6 5.2 5.9 6.1 4.3 4.4 4.6 5.2 4.8 4.2 2.9 3.0 4.0 2.7 3.2 3.4 5.8 3.7 3.7 3.5 3.3 3.5 3.4 3.3 3.4 3.3 3.2 3.1 3.2 2.7 2.6 3.2 3.1 3.1 3.3 3.4 3.0 3.0 3.0 3.2 3.2 3.2 3.8
5.4 5.8 3.7 7.0 3.8 4.2 3.9 3.9 6.2 6.0 5.4 4.4 5.2 5.1 5.1 4.6 5.7 5.3 5.6 5.9 4.3 3.8 3.6 3.2 3.4 3.3 3.9 4.3 4.8 3.9 4.3 3.6 3.8 4.1 3.8 3.5 3.4 3.5 3.6 3.2 3.5 3.4 3.4 2.9 3.1 3.0 3.1 3.2 3.2 3.2 3.2 3.6 4.5 4.1
7.1 3.4 6.1 3.5 4.1 4.3 4.6 5.0 5.1 4.5 5.3 5.2 4.6 4.5 3.8 4.4 5.2 6.2 5.8 4.8 4.1 4.1 3.5 3.5 3.8 3.9 4.3 4.5 5.6 4.9 4.0 3.4 3.3 4.3 4.3 4.0 4.0 3.8 4.0 4.7 4.5 4.2 3.5 3.0 3.2 3.1 3.2 3.2 3.3 3.6 3.7 3.6 3.2 3.6
7.1 4.4 3.8 3.4 2.8 4.5 4.2 3.3 3.7 4.1 5.5 5.7 5.2 4.6 4.6 6.0 5.7 5.8 4.2 3.9 4.0 3.7 3.2 3.3 3.5 3.9 4.1 4.5 4.7 3.8 3.4 3.4 3.7 4.2 3.9 4.1 4.2 4.1 3.9 4.4 5.0 4.3 3.9 3.4 3.1 2.9 3.2 3.3 3.4 3.7 3.9 3.5 3.7 3.8
4.9 4.2 6.7 3.2 3.7 2.6 4.6 4.6 4.7 5.0 4.4 4.5 5.4 5.7 5.2 5.4 7.2 4.8 4.2 3.6 3.6 3.2 3.3 3.3 3.3 3.5 3.6 4.0 4.3 4.4 4.0 4.1 4.1 4.2 3.9 3.9 4.0 4.2 4.6 4.4 4.8 3.0 3.9 3.9 3.2 3.5 3.5 3.3 3.5 3.5 3.7 4.0 4.5 3.9
5.1 3.5 3.5 7.6 6.1 5.1 6.0 4.9 4.9 4.5 3.4 3.7 4.7 6.4 5.8 5.4 4.4 4.2 4.2 3.8 3.1 3.4 3.8 3.9 4.0 3.3 3.8 4.1 4.3 4.4 4.1 4.1 4.2 5.5 4.7 5.5 5.1 4.8 4.6 4.4 4.4 4.1 4.1 4.2 3.0 3.5 4.0 4.2 4.0 3.9 3.1 4.0 3.9 4.0
5.5 3.4 4.6 6.1 8.2 7.0 5.6 5.3 5.0 4.5 4.3 4.4 5.1 6.3 6.4 5.8 4.5 3.3 3.8 3.7 3.9 3.7 3.4 3.5 3.6 3.6 4.0 4.3 4.7 4.3 3.6 3.4 3.8 4.4 4.9 5.2 5.0 5.3 5.2 4.6 4.4 4.3 4.0 3.7 4.7 5.2 3.4 4.4 3.6 4.4 4.6 5.1 4.7 5.0
3.2 3.2 4.1 4.2 6.1 5.0 4.9 4.0 4.0 4.3 4.0 4.0 3.8 4.6 5.5 5.9 4.8 4.4 4.2 3.9 3.9 3.4 3.4 3.7 3.8 3.5 4.0 4.7 4.2 4.6 5.5 4.1 4.7 4.9 4.6 4.8 5.1 4.7 4.6 4.6 4.3 4.2 4.1 4.3 4.3 5.1 6.1 5.7 5.0 4.7 5.3 5.3 5.9 6.1
3.8 3.6 6.3 7.3 5.9 4.4 4.1 3.8 4.0 4.3 4.0 4.4 4.6 4.1 4.1 4.5 6.8 5.4 4.4 3.8 3.9 4.0 3.1 4.0 4.1 4.6 4.3 4.2 4.0 4.1 3.1 5.6 5.8 5.9 4.9 5.4 4.9 5.1 5.1 5.4 4.9 4.3 4.6 4.6 5.0 5.4 5.4 6.0 6.4 6.2 6.2 6.0 6.2 6.5
4.4 4.3 4.8 5.5 5.1 4.7 4.5 4.1 4.6 5.0 5.2 5.4 5.0 4.8 4.5 5.3 7.4 5.0 4.8 3.8 3.7 3.9 4.2 3.9 3.6 3.7 4.3 4.4 5.0 5.0 3.5 5.3 4.2 3.0 3.0 3.0 3.0 3.4 5.8 5.3 5.0 5.6 5.7 5.7 5.3 5.7 5.8 6.6 7.5 7.1 7.5 7.6 7.4 7.0